This is the latest recevied weather packets stored in our database for station/object KN6WGU. If no packets are shown the sender has not sent any weather packets the latest 1 day(s).
| Time | Temp. | Humidity | Pressure | Rain* | Wind** | Luminosity | Snow |
|---|---|---|---|---|---|---|---|
| 1778012453 | 12.22° C | 97% | 1001.2 hPa | 8.89 mm | 0.45 m/s, 113° | 33 W/m² | - |
| 1778012150 | 12.78° C | 97% | 1001.2 hPa | 4.83 mm | 0.89 m/s, 48° | 15 W/m² | - |
| 1778011848 | 13.89° C | 97% | 1000.9 hPa | 3.05 mm | 0.45 m/s, 75° | 25 W/m² | - |
| 1778011545 | 13.89° C | 97% | 1001.1 hPa | 1.27 mm | 0 m/s | 44 W/m² | - |
| 1778011242 | 13.89° C | 97% | 1000.9 hPa | 3.05 mm | 0 m/s | 30 W/m² | - |
| 1778010938 | 13.89° C | 97% | 1001.1 hPa | 3.56 mm | 0 m/s | 48 W/m² | - |
| 1778010636 | 13.89° C | 96% | 1001.1 hPa | 1.78 mm | 0.45 m/s, 162° | 58 W/m² | - |
| 1778010333 | 13.89° C | 96% | 1001.1 hPa | 1.78 mm | 0 m/s | 55 W/m² | - |
| 1778010028 | 13.89° C | 96% | 1001.3 hPa | 6.1 mm | 0 m/s | 45 W/m² | - |
| 1778009725 | 13.89° C | 96% | 1001.2 hPa | 13.21 mm | 0 m/s | 95 W/m² | - |
| 1778009423 | 13.89° C | 95% | 1001 hPa | 12.7 mm | 0 m/s | 61 W/m² | - |
| 1778009121 | 13.89° C | 95% | 1001.2 hPa | 10.67 mm | 0.45 m/s, 150° | 30 W/m² | - |
| 1778008819 | 13.89° C | 94% | 1001.3 hPa | 10.67 mm | 0 m/s | 39 W/m² | - |
| 1778008516 | 13.89° C | 93% | 1001 hPa | 8.89 mm | 0 m/s | 60 W/m² | - |
| 1778008214 | 13.89° C | 93% | 1001.1 hPa | 7.87 mm | 0 m/s | 47 W/m² | - |
| 1778007908 | 13.89° C | 92% | 1001.2 hPa | 6.1 mm | 0 m/s | 38 W/m² | - |
| 1778007604 | 13.89° C | 91% | 1001.2 hPa | 3.05 mm | 0 m/s | 39 W/m² | - |
| 1778007301 | 14.44° C | 91% | 1001.1 hPa | 3.05 mm | 0 m/s | 49 W/m² | - |
| 1778006998 | 14.44° C | 90% | 1001 hPa | 3.05 mm | 0 m/s | 53 W/m² | - |
| 1778006695 | 14.44° C | 88% | 1001.2 hPa | 3.05 mm | 0 m/s | 47 W/m² | - |
| 1778006392 | 14.44° C | 87% | 1001.3 hPa | 1.27 mm | 0 m/s | 32 W/m² | - |
| 1778006089 | 15° C | 84% | 1001.4 hPa | 0 mm | 0 m/s | 38 W/m² | - |
| 1778005785 | 15° C | 82% | 1001.5 hPa | 0 mm | 0 m/s | 24 W/m² | - |
| 1778005482 | 16.11° C | 81% | 1001.1 hPa | 0 mm | 0.45 m/s, 182° | 38 W/m² | - |
| 1778005178 | 16.11° C | 79% | 1001 hPa | 0 mm | 0.45 m/s, 202° | 52 W/m² | - |
* Rain latest hour (hover to see other rain measurements)
** Current wind speed in m/s (hover to see current wind gust speed)